TimePST,TemperatureF,Dew PointF,Humidity,Sea Level PressureIn,VisibilityMPH,Wind Direction,Wind SpeedMPH,Gust SpeedMPH,PrecipitationIn,Events,Conditions,WindDirDegrees,DateUTC
12:51 AM,51.1,28.9,43,30.18,10.0,NNW,4.6,-,N/A,,Clear,340,2013-01-29 08:51:00
1:51 AM,52.0,28.9,41,30.18,10.0,Variable,4.6,-,N/A,,Clear,0,2013-01-29 09:51:00
2:51 AM,51.1,28.9,43,30.19,10.0,WNW,6.9,-,N/A,,Clear,300,2013-01-29 10:51:00
3:51 AM,51.1,28.9,43,30.20,10.0,WNW,4.6,-,N/A,,Clear,300,2013-01-29 11:51:00
4:51 AM,48.9,28.9,46,30.19,10.0,Calm,Calm,-,N/A,,Clear,0,2013-01-29 12:51:00
5:51 AM,46.9,30.9,54,30.20,10.0,Calm,Calm,-,N/A,,Clear,0,2013-01-29 13:51:00
6:51 AM,46.0,32.0,58,30.22,10.0,East,3.5,-,N/A,,Clear,80,2013-01-29 14:51:00
7:51 AM,48.0,33.1,56,30.22,10.0,NE,4.6,-,N/A,,Clear,50,2013-01-29 15:51:00
8:51 AM,52.0,33.1,49,30.24,10.0,East,6.9,-,N/A,,Clear,80,2013-01-29 16:51:00
9:51 AM,55.0,34.0,45,30.23,10.0,Variable,3.5,-,N/A,,Clear,0,2013-01-29 17:51:00
10:51 AM,55.9,32.0,40,30.22,10.0,Calm,Calm,-,N/A,,Clear,0,2013-01-29 18:51:00
11:51 AM,57.9,32.0,37,30.20,10.0,SSW,5.8,-,N/A,,Clear,200,2013-01-29 19:51:00
12:51 PM,57.9,35.1,42,30.18,10.0,WSW,6.9,-,N/A,,Clear,240,2013-01-29 20:51:00
1:51 PM,57.0,39.9,53,30.17,10.0,SW,5.8,-,N/A,,Clear,220,2013-01-29 21:51:00
2:51 PM,57.0,42.1,57,30.17,10.0,WSW,4.6,-,N/A,,Clear,240,2013-01-29 22:51:00
3:51 PM,57.0,41.0,55,30.17,10.0,SSW,5.8,-,N/A,,Clear,210,2013-01-29 23:51:00
4:51 PM,55.0,41.0,59,30.17,10.0,SSW,3.5,-,N/A,,Clear,200,2013-01-30 00:51:00
5:51 PM,54.0,43.0,66,30.19,10.0,South,3.5,-,N/A,,Clear,190,2013-01-30 01:51:00
6:51 PM,54.0,44.1,69,30.20,10.0,Calm,Calm,-,N/A,,Clear,0,2013-01-30 02:51:00
7:51 PM,51.1,41.0,68,30.22,10.0,Calm,Calm,-,N/A,,Clear,0,2013-01-30 03:51:00
8:51 PM,50.0,42.1,74,30.21,10.0,Calm,Calm,-,N/A,,Clear,0,2013-01-30 04:51:00
9:51 PM,50.0,39.0,66,30.22,10.0,Calm,Calm,-,N/A,,Clear,0,2013-01-30 05:51:00
10:51 PM,50.0,39.0,66,30.22,10.0,North,3.5,-,N/A,,Clear,10,2013-01-30 06:51:00
11:51 PM,48.0,39.9,74,30.22,10.0,Calm,Calm,-,N/A,,Clear,0,2013-01-30 07:51:00